Weather History for Hobbs, NM

Change the Weather History Date:

Thursday, January 17, 2013

  Actual Average Record
Temperature  
Mean Temperature 40 °F -  
Max Temperature 53 °F 57 °F 80 °F (2000)
Min Temperature 26 °F 30 °F -7 °F (2007)
Degree Days  
Heating Degree Days 26    
Moisture  
Dew Point 23 °F    
Average Humidity 62    
Maximum Humidity 80    
Minimum Humidity 30    
Precipitation  
Precipitation 0.00 in - - ()
Sea Level Pressure  
Sea Level Pressure 30.44 in    
Wind  
Wind Speed 3 mph (NNW)    
Max Wind Speed 8 mph    
Max Gust Speed -    
Visibility 10 miles    
Events      
Averages and records for this station are not official NWS values.
T = Trace of Precipitation, MM = Missing Value Source: NWS Daily Summary

Daily Weather History Graph

Daily Weather History Graph

Search for Another Location

Airport:

Trip Planner

Search our weather history database for the weather conditions in past years. The results will help you decide how hot, cold, wet, or windy it might be!

Date:

Astronomy

Jan. 17, 2013 Rise Set
Actual Time 6:54 AM MST 5:11 PM MST
Civil Twilight 6:28 AM MST 5:38 PM MST
Nautical Twilight 5:57 AM MST 6:08 PM MST
Astronomical Twilight 5:28 AM MST 6:38 PM MST
Moon 10:26 AM MST (1/17) 11:39 PM MST (1/17)
Length of Visible Light 11h 10m
Length of Day
10h 17m
Waxing Crescent, 38% of the Moon is Illuminated
Jan 17
Waxing Crescent
Jan 18
First Quarter
Jan 26
Full
Feb 3
Last Quarter
Feb 10
New

Hourly Weather History & Observations

Time (MST) Temp. Windchill Dew Point Humidity Pressure Visibility Wind Dir Wind Speed Gust Speed Precip Events Conditions
12:15 AM 32.0 °F 24.8 °F 23.0 °F 69% 30.38 in 10.0 mi WNW 8.1 mph - N/A   Clear
12:35 AM 30.2 °F 22.6 °F 23.0 °F 75% 30.38 in 10.0 mi WNW 8.1 mph - N/A   Clear
12:55 AM 30.2 °F - 23.0 °F 75% 30.39 in 10.0 mi Calm Calm - N/A   Clear
1:15 AM 30.2 °F - 23.0 °F 75% 30.39 in 10.0 mi Calm Calm - N/A   Clear
1:35 AM 30.2 °F - 23.0 °F 75% 30.40 in 10.0 mi Calm Calm - N/A   Clear
1:55 AM 28.4 °F - 23.0 °F 80% 30.40 in 10.0 mi Calm Calm - N/A   Clear
2:15 AM 28.4 °F - 23.0 °F 80% 30.41 in 10.0 mi Calm Calm - N/A   Clear
2:35 AM 28.4 °F - 23.0 °F 80% 30.40 in 10.0 mi Calm Calm - N/A   Clear
2:55 AM 28.4 °F - 23.0 °F 80% 30.41 in 10.0 mi Calm Calm - N/A   Clear
3:15 AM 28.4 °F - 23.0 °F 80% 30.41 in 10.0 mi Calm Calm - N/A   Clear
3:35 AM 28.4 °F - 23.0 °F 80% 30.41 in 10.0 mi Calm Calm - N/A   Clear
3:55 AM 28.4 °F - 23.0 °F 80% 30.42 in 10.0 mi Calm Calm - N/A   Clear
5:50 AM 28.4 °F 21.2 °F 21.2 °F 74% 30.42 in 10.0 mi NW 6.9 mph - N/A   Clear
6:50 AM 26.6 °F 20.0 °F 21.2 °F 80% 30.45 in 10.0 mi NNW 5.8 mph - N/A   Clear
7:50 AM 33.8 °F 30.8 °F 23.0 °F 65% 30.48 in 10.0 mi NW 3.5 mph - N/A   Clear
8:50 AM 41.0 °F 37.1 °F 24.8 °F 53% 30.51 in 10.0 mi North 5.8 mph - N/A   Clear
9:50 AM 48.2 °F - 24.8 °F 40% 30.53 in 10.0 mi NNE 4.6 mph - N/A   Clear
11:50 AM 53.6 °F - 24.8 °F 33% 30.49 in 10.0 mi NE 6.9 mph - N/A   Clear
12:50 PM 53.6 °F - 24.8 °F 33% 30.45 in 10.0 mi Variable 3.5 mph - N/A   Clear
1:50 PM 53.6 °F - 23.0 °F 30% 30.43 in 10.0 mi Calm Calm - N/A   Clear
3:50 PM 53.6 °F - 23.0 °F 30% 30.43 in 10.0 mi Calm Calm - N/A   Clear
4:50 PM 51.8 °F - 23.0 °F 33% 30.44 in 10.0 mi Calm Calm - N/A   Clear
5:15 PM 48.2 °F - 23.0 °F 37% 30.44 in 10.0 mi Calm Calm - N/A   Clear
5:50 PM 44.6 °F - 23.0 °F 43% 30.45 in 10.0 mi Calm Calm - N/A   Clear
6:35 PM 41.0 °F - 23.0 °F 49% 30.46 in 10.0 mi Calm Calm - N/A   Clear
7:35 PM 39.2 °F - 23.0 °F 52% 30.46 in 10.0 mi Calm Calm - N/A   Clear
8:15 PM 37.4 °F 32.1 °F 23.0 °F 56% 30.47 in 10.0 mi ESE 6.9 mph - N/A   Clear
10:15 PM 35.6 °F - 24.8 °F 65% 30.47 in 10.0 mi Calm Calm - N/A   Clear
10:35 PM 33.8 °F - 24.8 °F 70% 30.46 in 10.0 mi Calm Calm - N/A   Clear
10:55 PM 33.8 °F - 23.0 °F 65% 30.46 in 10.0 mi Calm Calm - N/A   Clear
11:15 PM 32.0 °F - 23.0 °F 69% 30.45 in 10.0 mi Calm Calm - N/A   Clear
11:35 PM 32.0 °F - 23.0 °F 69% 30.45 in 10.0 mi Calm Calm - N/A   Clear